Location: Recife
(8.0585°S, 34.8848°W)
Time: 10:46:17
(UTC-03:00)

Courier 1B Rocket - Pass Details

Date: 20 April 2026
Orbit: 920 x 1201 km, 28.2° (Epoch: 13 May)

Event Time Altitude Azimuth Distance (km) Brightness Sun altitude
Rises 05:20:05 0° 255° (WSW) 3,569 - -1.2°
Exits shadow 05:20:28 - 253° (WSW) 3,459 7.2 -1.1°
Reaches altitude 10° 05:23:35 10° 236° (SW) 2,654 6.7 -0.4°
Maximum altitude 05:27:47 18° 194° (SSW) 2,179 6.6 0.6°
Drops below altitude 10° 05:32:07 10° 153° (SSE) 2,758 7.6 1.7°
Sets 05:35:52 0° 134° (SE) 3,766 8.6 2.6°
